�N����,����,�~����,�C��,���x,�C��,����,���ϕ���,�ő�u�ԕ���,�ő厞����,���˗�,�I�_���x,�n�����x,�ő啗���N��,DTYPE
"21/04/23","00:10",0.0,13.1,53.7,1014.9,333.0,3.9,6.6,335.0,0.00,4.0,130.0,"00:03:08",1
"21/04/23","00:20",0.0,12.9,54.8,1014.7,334.3,3.9,6.2,336.6,0.00,4.1,130.0,"00:11:54",1
"21/04/23","00:30",0.0,12.7,55.5,1014.7,332.9,3.6,7.2,341.7,0.00,4.1,130.0,"00:24:16",1
"21/04/23","00:40",0.0,12.7,55.6,1014.9,322.2,3.0,4.8,344.4,0.00,4.1,130.0,"00:38:58",1
"21/04/23","00:50",0.0,13.1,53.2,1014.5,332.6,3.5,5.4,334.0,0.00,3.8,130.0,"00:46:20",1
"21/04/23","01:00",0.0,12.8,54.5,1015.2,323.3,3.1,4.7,308.5,0.00,3.9,130.0,"00:54:50",1
"21/04/23","01:10",0.0,12.1,56.8,1014.7,330.8,2.7,4.0,344.2,0.00,3.8,130.0,"01:06:14",1
"21/04/23","01:20",0.0,12.1,58.1,1014.7,324.5,3.1,4.8,336.6,0.00,4.2,130.0,"01:10:46",1
"21/04/23","01:30",0.0,12.3,58.3,1014.7,320.5,3.1,4.9,313.4,0.00,4.4,130.0,"01:29:40",1
"21/04/23","01:40",0.0,12.2,59.4,1014.9,324.6,3.2,4.7,317.4,0.00,4.6,130.0,"01:30:36",1
"21/04/23","01:50",0.0,11.6,60.2,1014.2,333.8,1.8,4.1,323.5,0.00,4.2,130.0,"01:40:16",1
"21/04/23","02:00",0.0,10.8,61.3,1014.5,309.7,0.8,1.8,349.0,0.00,3.7,130.0,"01:54:48",1
"21/04/23","02:10",0.0,10.5,63.7,1014.5,319.5,2.1,4.0,314.6,0.00,4.0,130.0,"02:06:08",1
"21/04/23","02:20",0.0,10.2,65.2,1014.7,337.8,1.0,2.4,325.6,0.00,4.0,130.0,"02:12:00",1
"21/04/23","02:30",0.0,10.0,66.4,1014.5,314.9,1.3,2.4,316.3,0.00,4.1,130.0,"02:28:48",1
"21/04/23","02:40",0.0,9.7,67.8,1014.7,311.3,1.7,2.6,317.2,0.00,4.1,130.0,"02:36:32",1
"21/04/23","02:50",0.0,9.6,69.0,1014.5,331.7,1.6,2.8,336.4,0.00,4.2,130.0,"02:42:48",1
"21/04/23","03:00",0.0,9.6,69.9,1014.5,326.5,2.5,3.5,309.1,0.00,4.4,130.0,"02:54:40",1
"21/04/23","03:10",0.0,9.5,70.6,1014.2,329.7,2.1,3.4,324.2,0.00,4.5,130.0,"03:08:32",1
"21/04/23","03:20",0.0,9.6,71.0,1014.2,327.8,2.5,3.7,324.2,0.00,4.6,130.0,"03:18:08",1
"21/04/23","03:30",0.0,9.6,71.4,1014.2,324.5,2.3,3.5,328.7,0.00,4.7,130.0,"03:29:36",1
"21/04/23","03:40",0.0,9.3,71.4,1013.8,318.9,2.1,2.9,328.9,0.00,4.4,130.0,"03:34:24",1
"21/04/23","03:50",0.0,8.9,71.5,1014.7,293.3,1.5,3.1,317.7,0.00,4.1,130.0,"03:42:24",1
"21/04/23","04:00",0.0,8.7,72.0,1013.8,301.7,1.8,3.3,310.3,0.00,4.0,130.0,"03:57:44",1
"21/04/23","04:10",0.0,8.7,72.3,1014.5,329.5,2.0,3.1,309.9,0.00,4.0,130.0,"04:09:40",1
"21/04/23","04:20",0.0,9.2,72.4,1014.2,326.9,2.5,3.5,321.9,0.00,4.5,130.0,"04:16:16",1
"21/04/23","04:30",0.0,9.4,72.3,1014.2,332.7,2.5,4.2,338.7,0.00,4.7,130.0,"04:26:40",1
"21/04/23","04:40",0.0,9.1,72.4,1014.2,327.0,2.7,4.2,329.5,0.00,4.4,130.0,"04:34:40",1
"21/04/23","04:50",0.0,8.8,72.1,1014.7,328.7,2.7,4.0,315.0,0.00,4.1,130.0,"04:40:48",1
"21/04/23","05:00",0.0,8.6,71.9,1014.9,331.6,2.3,3.4,342.2,0.00,3.9,130.0,"04:53:28",1
"21/04/23","05:10",0.0,8.3,72.1,1014.9,316.9,1.8,2.4,328.1,0.00,3.6,130.0,"05:02:56",1
"21/04/23","05:20",0.0,8.2,72.8,1014.9,320.8,2.0,2.7,318.7,0.00,3.7,130.0,"05:17:28",1
"21/04/23","05:30",0.0,8.2,73.7,1015.2,321.2,2.1,3.3,324.7,0.00,3.8,130.0,"05:28:16",1
"21/04/23","05:40",0.0,8.4,74.6,1015.2,324.0,3.2,4.9,329.3,0.00,4.2,130.0,"05:36:48",1
"21/04/23","05:50",0.0,8.4,75.1,1015.4,331.5,3.2,5.1,331.0,0.00,4.3,130.0,"05:42:24",1
"21/04/23","06:00",0.0,8.6,74.7,1015.4,335.6,3.0,4.9,327.0,0.00,4.4,130.0,"05:59:36",1
"21/04/23","06:10",0.0,9.4,73.0,1015.4,300.8,3.2,6.4,324.8,0.00,4.9,130.0,"06:02:40",1
"21/04/23","06:20",0.0,9.7,71.5,1015.9,285.0,2.2,2.9,269.0,0.01,4.8,130.0,"06:13:04",1
"21/04/23","06:30",0.0,10.2,70.1,1015.9,288.4,1.7,2.5,262.4,0.02,5.0,130.0,"06:21:20",1
"21/04/23","06:40",0.0,10.9,68.4,1016.4,313.3,2.1,4.1,334.9,0.04,5.4,130.0,"06:36:48",1
"21/04/23","06:50",0.0,11.8,66.6,1016.1,298.6,2.0,4.0,322.0,0.06,5.8,130.0,"06:41:20",1
"21/04/23","07:00",0.0,12.5,64.1,1016.1,304.3,1.8,2.5,294.4,0.08,5.9,130.0,"06:56:56",1
"21/04/23","07:10",0.0,13.1,61.8,1016.4,323.5,1.8,4.0,332.9,0.09,6.0,130.0,"07:04:56",1
"21/04/23","07:20",0.0,14.2,60.8,1016.4,334.3,1.0,2.1,333.5,0.13,6.8,130.0,"07:13:44",1
"21/04/23","07:30",0.0,14.9,59.6,1016.4,341.9,1.2,2.4,340.0,0.16,7.2,130.0,"07:20:48",1
"21/04/23","07:40",0.0,15.3,57.8,1016.4,340.2,0.8,2.4,337.7,0.16,7.1,130.0,"07:30:24",1
"21/04/23","07:50",0.0,16.0,57.2,1016.6,321.8,0.7,1.8,340.4,0.17,7.6,130.0,"07:48:40",1
"21/04/23","08:00",0.0,16.7,55.7,1016.4,294.7,1.1,2.2,261.4,0.21,7.8,130.0,"07:56:56",1
"21/04/23","08:10",0.0,17.5,56.9,1016.4,280.2,1.1,2.0,334.3,0.25,8.9,130.0,"08:03:20",1
"21/04/23","08:20",0.0,18.4,59.2,1016.4,105.7,0.8,2.2,112.2,0.28,10.3,130.0,"08:17:36",1
"21/04/23","08:30",0.0,18.6,59.2,1015.9,83.8,1.5,3.6,114.6,0.32,10.5,130.0,"08:26:08",1
"21/04/23","08:40",0.0,19.2,59.5,1016.1,93.0,1.5,3.3,119.5,0.34,11.2,130.0,"08:31:52",1
"21/04/23","08:50",0.0,19.2,59.4,1016.1,112.0,1.8,3.7,122.5,0.35,11.1,130.0,"08:48:32",1
"21/04/23","09:00",0.0,19.2,60.8,1016.1,120.3,2.1,5.6,132.8,0.36,11.5,130.0,"08:54:48",1
"21/04/23","09:10",0.0,19.4,61.3,1016.1,118.7,2.2,4.0,126.2,0.39,11.8,130.0,"09:03:36",1
"21/04/23","09:20",0.0,19.8,61.1,1015.9,117.0,2.5,4.4,128.4,0.42,12.1,130.0,"09:12:00",1
"21/04/23","09:30",0.0,19.7,59.3,1015.9,103.6,2.3,4.3,126.4,0.45,11.6,130.0,"09:20:08",1
"21/04/23","09:40",0.0,20.0,58.3,1016.4,104.6,2.0,4.3,119.8,0.46,11.6,130.0,"09:33:28",1
"21/04/23","09:50",0.0,20.0,58.9,1016.1,103.5,2.5,4.3,108.6,0.45,11.8,130.0,"09:43:36",1
"21/04/23","10:00",0.0,20.3,58.3,1016.1,113.5,2.5,4.8,115.8,0.50,11.9,130.0,"09:51:04",1
"21/04/23","10:10",0.0,20.6,58.9,1015.9,116.2,2.6,4.8,85.1,0.52,12.3,130.0,"10:01:36",1
"21/04/23","10:20",0.0,20.5,58.8,1016.1,114.5,3.1,5.8,110.2,0.53,12.2,130.0,"10:10:48",1
"21/04/23","10:30",0.0,20.9,55.7,1015.4,81.5,1.7,4.0,117.8,0.52,11.8,130.0,"10:28:56",1
"21/04/23","10:40",0.0,21.0,55.4,1015.2,120.3,2.5,5.6,121.8,0.51,11.8,130.0,"10:30:02",1
"21/04/23","10:50",0.0,21.3,55.8,1014.9,134.9,2.7,4.9,130.8,0.50,12.2,130.0,"10:40:48",1
"21/04/23","11:00",0.0,21.7,53.6,1014.7,108.3,2.2,5.8,114.6,0.49,11.9,130.0,"10:59:36",1
"21/04/23","11:10",0.0,21.4,49.7,1014.9,114.3,2.8,5.4,122.9,0.53,10.5,130.0,"11:01:20",1
"21/04/23","11:20",0.0,21.8,50.3,1014.9,87.6,2.6,6.7,119.1,0.55,11.1,130.0,"11:18:32",1
"21/04/23","11:30",0.0,21.9,51.7,1014.7,117.3,3.1,7.7,126.2,0.56,11.6,130.0,"11:20:48",1
"21/04/23","11:40",0.0,21.9,51.7,1014.2,120.9,2.6,4.1,123.2,0.52,11.6,130.0,"11:34:56",1
"21/04/23","11:50",0.0,22.1,50.7,1014.2,129.1,2.5,4.9,122.2,0.54,11.5,130.0,"11:47:28",1
"21/04/23","12:00",0.0,22.3,51.3,1013.8,137.0,2.3,6.4,124.6,0.55,11.8,130.0,"11:55:20",1
"21/04/23","12:10",0.0,22.7,49.7,1013.8,124.4,1.7,4.1,145.2,0.56,11.7,130.0,"12:09:04",1
"21/04/23","12:20",0.0,22.6,47.6,1013.8,127.1,2.1,6.3,115.4,0.57,11.0,130.0,"12:11:36",1
"21/04/23","12:30",0.0,22.9,48.6,1013.8,126.3,2.2,5.2,111.0,0.58,11.5,130.0,"12:29:28",1
"21/04/23","12:40",0.0,23.4,49.2,1013.8,147.0,2.0,4.7,125.0,0.57,12.2,130.0,"12:31:36",1
"21/04/23","12:50",0.0,23.5,46.0,1013.8,171.1,1.8,4.3,113.2,0.56,11.3,130.0,"12:48:40",1
"21/04/23","13:00",0.0,23.7,46.2,1013.5,81.6,1.8,4.4,119.8,0.58,11.5,130.0,"12:52:00",1
"21/04/23","13:10",0.0,24.0,44.3,1013.3,123.6,1.5,4.2,114.2,0.59,11.1,130.0,"13:01:44",1
"21/04/23","13:20",0.0,23.6,41.4,1013.3,114.5,1.8,4.2,115.7,0.49,9.8,130.0,"13:12:16",1
"21/04/23","13:30",0.0,23.8,36.2,1013.3,111.8,1.5,3.3,119.2,0.46,8.0,130.0,"13:23:36",1
"21/04/23","13:40",0.0,24.0,41.4,1013.0,106.6,1.1,2.8,112.0,0.40,10.1,130.0,"13:34:16",1
"21/04/23","13:50",0.0,23.8,43.9,1013.0,80.3,1.3,4.1,113.3,0.38,10.8,130.0,"13:49:52",1
"21/04/23","14:00",0.0,23.7,45.6,1013.0,172.6,1.7,2.9,188.7,0.38,11.3,130.0,"13:54:08",1
"21/04/23","14:10",0.0,24.3,43.1,1013.0,354.1,1.2,3.3,351.9,0.38,11.0,130.0,"14:05:52",1
"21/04/23","14:20",0.0,23.8,41.3,1012.8,22.5,1.3,2.8,337.3,0.33,9.9,130.0,"14:18:32",1
"21/04/23","14:30",0.0,24.3,42.0,1012.6,19.3,1.1,2.4,335.7,0.38,10.6,130.0,"14:28:16",1
"21/04/23","14:40",0.0,24.8,43.2,1012.3,310.0,1.2,3.5,338.9,0.42,11.5,130.0,"14:35:12",1
"21/04/23","14:50",0.0,25.4,41.4,1012.1,203.5,1.1,2.8,216.9,0.47,11.4,130.0,"14:48:56",1
"21/04/23","15:00",0.0,24.8,40.9,1011.9,190.0,1.5,3.2,190.5,0.37,10.7,130.0,"14:54:32",1
"21/04/23","15:10",0.0,24.8,42.1,1011.4,173.4,1.1,2.1,119.2,0.33,11.1,130.0,"15:07:44",1
"21/04/23","15:20",0.0,24.6,41.2,1011.9,94.9,1.3,3.1,115.7,0.32,10.6,130.0,"15:10:02",1
"21/04/23","15:30",0.0,23.9,40.9,1011.9,124.7,1.7,3.4,115.6,0.23,9.9,130.0,"15:23:28",1
"21/04/23","15:40",0.0,23.7,40.8,1011.9,163.4,0.8,2.1,199.6,0.16,9.6,130.0,"15:33:52",1
"21/04/23","15:50",0.0,23.7,41.0,1011.6,190.0,1.1,2.4,120.1,0.16,9.7,130.0,"15:49:04",1
"21/04/23","16:00",0.0,23.8,41.6,1011.6,177.9,0.8,2.1,156.1,0.16,10.0,130.0,"15:57:52",1
"21/04/23","16:10",0.0,23.6,41.4,1011.9,152.9,1.5,4.3,140.8,0.16,9.8,130.0,"16:04:24",1
"21/04/23","16:20",0.0,23.2,46.0,1012.1,139.8,2.5,4.2,129.5,0.14,11.0,130.0,"16:18:40",1
"21/04/23","16:30",0.0,22.8,47.2,1012.1,131.1,2.5,4.5,134.0,0.14,11.0,130.0,"16:22:40",1
"21/04/23","16:40",0.0,22.5,48.1,1012.1,142.0,2.7,4.8,158.6,0.11,11.0,130.0,"16:33:20",1
"21/04/23","16:50",0.0,22.2,49.0,1012.1,140.3,2.2,3.6,121.2,0.09,11.0,130.0,"16:41:12",1
"21/04/23","17:00",0.0,22.1,49.7,1012.1,138.0,2.0,3.9,102.6,0.09,11.2,130.0,"16:52:40",1
"21/04/23","17:10",0.0,22.3,50.1,1012.3,169.4,1.7,3.6,134.4,0.08,11.5,130.0,"17:02:56",1
"21/04/23","17:20",0.0,22.5,50.4,1012.3,158.2,1.0,2.6,218.1,0.08,11.7,130.0,"17:10:48",1
"21/04/23","17:30",0.0,22.3,51.1,1012.6,129.7,1.7,2.9,116.0,0.09,11.8,130.0,"17:28:24",1
"21/04/23","17:40",0.0,22.2,51.7,1012.6,113.9,2.1,4.8,116.6,0.07,11.8,130.0,"17:35:04",1
"21/04/23","17:50",0.0,21.9,52.9,1012.6,135.3,1.5,2.9,115.1,0.03,11.9,130.0,"17:48:56",1
"21/04/23","18:00",0.0,21.3,54.3,1013.0,140.2,2.0,4.2,120.8,0.01,11.7,130.0,"17:58:08",1
"21/04/23","18:10",0.0,21.0,55.6,1012.8,148.1,1.7,3.2,138.2,0.01,11.8,130.0,"18:01:12",1
"21/04/23","18:20",0.0,20.7,56.9,1013.3,133.6,1.2,2.7,125.3,0.00,11.9,130.0,"18:11:44",1
"21/04/23","18:30",0.0,20.3,58.2,1013.3,132.2,1.1,2.6,124.3,0.00,11.9,130.0,"18:20:16",1
"21/04/23","18:40",0.0,20.2,59.1,1013.5,124.7,1.1,2.0,126.6,0.00,12.0,130.0,"18:32:08",1
"21/04/23","18:50",0.0,20.0,59.6,1013.8,50.4,0.6,1.7,3.0,0.00,11.9,130.0,"18:46:00",1
"21/04/23","19:00",0.0,19.8,60.7,1014.0,43.5,0.7,1.7,97.7,0.00,12.0,130.0,"18:58:48",1
"21/04/23","19:10",0.0,19.3,62.9,1014.2,140.5,1.3,2.7,119.5,0.00,12.1,130.0,"19:03:28",1
"21/04/23","19:20",0.0,19.0,64.3,1014.9,280.2,1.0,2.9,322.2,0.00,12.2,130.0,"19:19:12",1
"21/04/23","19:30",0.0,18.5,65.4,1014.9,323.7,2.2,2.9,326.7,0.00,11.9,130.0,"19:20:02",1
"21/04/23","19:40",0.0,18.5,66.2,1014.9,331.5,1.8,3.7,343.4,0.00,12.1,130.0,"19:30:56",1
"21/04/23","19:50",0.0,18.4,66.9,1014.9,1.3,1.3,2.7,353.9,0.00,12.2,130.0,"19:43:20",1
"21/04/23","20:00",0.0,18.4,67.4,1015.4,37.0,0.5,1.4,76.6,0.00,12.3,130.0,"19:58:00",1
"21/04/23","20:10",0.0,18.4,67.9,1015.4,14.5,0.6,1.8,12.9,0.00,12.4,130.0,"20:09:28",1
"21/04/23","20:20",0.0,18.2,68.2,1015.2,350.5,0.7,1.4,343.3,0.00,12.3,130.0,"20:12:08",1
"21/04/23","20:30",0.0,18.1,68.6,1015.4,353.4,1.0,2.2,5.3,0.00,12.3,130.0,"20:26:24",1
"21/04/23","20:40",0.0,17.9,69.0,1015.6,341.0,1.1,2.0,339.0,0.00,12.2,130.0,"20:31:12",1
"21/04/23","20:50",0.0,17.7,69.2,1015.4,338.1,0.8,2.0,329.0,0.00,12.0,130.0,"20:40:40",1
"21/04/23","21:00",0.0,17.5,70.0,1015.6,340.8,1.1,1.9,332.7,0.00,12.0,130.0,"20:56:48",1
"21/04/23","21:10",0.0,16.9,71.5,1016.4,342.1,1.2,2.2,340.1,0.00,11.8,130.0,"21:01:28",1
"21/04/23","21:20",0.0,16.9,72.4,1016.1,342.1,1.1,2.1,350.2,0.00,11.9,130.0,"21:11:36",1
"21/04/23","21:30",0.0,16.9,73.2,1016.1,336.9,1.0,2.0,345.0,0.00,12.1,130.0,"21:24:32",1
"21/04/23","21:40",0.0,16.8,73.9,1015.9,351.2,0.7,1.7,312.0,0.00,12.2,130.0,"21:36:56",1
"21/04/23","21:50",0.0,16.7,74.5,1016.1,336.0,1.3,2.2,334.6,0.00,12.2,130.0,"21:44:24",1
"21/04/23","22:00",0.0,16.4,75.5,1015.6,346.6,0.8,1.9,310.0,0.00,12.1,130.0,"21:50:48",1
"21/04/23","22:10",0.0,16.4,76.0,1016.1,344.0,0.6,1.6,326.2,0.00,12.2,130.0,"22:08:24",1
"21/04/23","22:20",0.0,16.1,76.0,1016.4,325.5,1.1,2.0,334.9,0.00,11.9,130.0,"22:13:04",1
"21/04/23","22:30",0.0,16.0,76.4,1016.4,321.3,0.5,1.4,339.5,0.00,11.9,130.0,"22:23:36",1
"21/04/23","22:40",0.0,16.0,76.6,1015.9,339.9,0.5,1.1,341.5,0.00,11.9,130.0,"22:30:16",1
"21/04/23","22:50",0.0,16.1,76.5,1016.4,327.0,0.5,1.3,95.1,0.00,12.0,130.0,"22:45:36",1
"21/04/23","23:00",0.0,15.8,76.4,1016.4,293.8,1.0,1.4,324.1,0.00,11.7,130.0,"22:51:12",1
"21/04/23","23:10",0.0,15.7,77.0,1016.4,311.4,1.3,2.1,317.2,0.00,11.7,130.0,"23:08:08",1
"21/04/23","23:20",0.0,15.2,78.0,1015.9,294.4,1.2,1.9,299.7,0.00,11.4,130.0,"23:10:08",1
"21/04/23","23:30",0.0,15.0,78.9,1015.9,317.0,0.8,1.2,321.4,0.00,11.4,130.0,"23:21:04",1
"21/04/23","23:40",0.0,14.9,79.5,1016.1,278.9,0.8,1.4,338.8,0.00,11.4,130.0,"23:39:52",1
"21/04/23","23:50",0.0,14.8,80.1,1015.9,306.7,1.2,1.9,297.7,0.00,11.4,130.0,"23:43:12",1
"21/04/23","24:00",0.0,14.4,80.6,1015.9,308.2,1.0,1.9,324.5,0.00,11.1,130.0,"23:51:20",1
